Ottawa International, Ontario

1:25 PM EST on January 16, 2018 (GMT -0500)
Ottawa International Airport

Weather History for CYOW - November, 2013

Change the Weather History Date:

Friday, November 1, 2013

  Actual Average Record
Temperature  
Mean Temperature 54 °F -  
Max Temperature 62 °F 39 °F 64 °F (2001)
Min Temperature 46 °F 26 °F 23 °F (2002)
Degree Days  
Heating Degree Days 11    
Growing Degree Days 4 (Base 50)    
Moisture  
Dew Point 50 °F    
Average Humidity 78    
Maximum Humidity 100    
Minimum Humidity 53    
Precipitation  
Precipitation 0.12 in 0.11 in - ()
Sea Level Pressure  
Sea Level Pressure 29.26 in    
Wind  
Wind Speed 17 mph ()    
Max Wind Speed 34 mph    
Max Gust Speed 54 mph    
Visibility 12.0 miles    
Events Rain    
Averages and records for this station are not official NWS values.
T = Trace of Precipitation, MM = Missing Value Source: Averaged Metar Reports

Daily Weather History Graph

Daily Weather History Graph

Search for Another Location

Airport or City:

Trip Planner

Search our weather history database for the weather conditions in past years. The results will help you decide how hot, cold, wet, or windy it might be!

Date:

Astronomy

Nov. 01, 2013 Rise Set
Actual Time 7:42 AM EDT 5:49 PM EDT
Civil Twilight 7:11 AM EDT 6:20 PM EDT
Nautical Twilight 6:36 AM EDT 6:55 PM EDT
Astronomical Twilight 6:02 AM EDT 7:29 PM EDT
Moon 5:26 AM EDT (11/1) 4:45 PM EDT (11/1)
Length of Visible Light 11h 09m
Length of Day
10h 07m
Waning Crescent, 4% of the Moon is Illuminated
Nov 1
Waning Crescent
Nov 3
New
Nov 10
First Quarter
Nov 17
Full
Nov 25
Last Quarter

Hourly Weather History & Observations

Time (EDT) Temp. Windchill Dew Point Humidity Pressure Visibility Wind Dir Wind Speed Gust Speed Precip Events Conditions
12:00 AM 59.0 °F - 57.2 °F 94% 29.42 in 7.0 mi South 16.1 mph 24.2 mph N/A   Overcast
12:38 AM 57.2 °F - 57.2 °F 100% 29.38 in 4.0 mi South 13.8 mph 23.0 mph N/A   Light Drizzle
1:00 AM 57.2 °F - 57.2 °F 100% 29.36 in 6.0 mi South 13.8 mph - N/A   Light Drizzle
1:34 AM 57.2 °F - 57.2 °F 100% 29.33 in 6.0 mi South 12.7 mph 21.9 mph N/A Rain Light Rain
2:00 AM 58 °F - 57 °F 94% 29.31 in 6 mi South 11.5 mph - - Rain Light Rain
2:00 AM 57.2 °F - 57.2 °F 100% 29.31 in 6.0 mi South 12.7 mph 20.7 mph N/A Rain Light Rain
3:00 AM 59.0 °F - 57.2 °F 94% 29.26 in 6.0 mi South 15.0 mph 28.8 mph N/A Rain Light Rain
4:00 AM 59.0 °F - 57.2 °F 94% 29.20 in 8.0 mi South 19.6 mph 29.9 mph N/A Rain Light Rain
5:00 AM 59.0 °F - 57.2 °F 94% 29.16 in 8.0 mi South 16.1 mph 26.5 mph N/A Rain Light Rain
5:23 AM 59.0 °F - 57.2 °F 94% 29.15 in 8.0 mi South 19.6 mph 27.6 mph N/A   Light Drizzle
6:00 AM 60.8 °F - 57.2 °F 88% 29.13 in 6.0 mi South 19.6 mph 28.8 mph N/A   Light Drizzle
6:06 AM 60.8 °F - 59.0 °F 94% 29.13 in 8.0 mi South 19.6 mph 32.2 mph N/A Rain Light Rain
7:00 AM 60.8 °F - 59.0 °F 94% 29.11 in 8.0 mi South 18.4 mph 38.0 mph N/A Rain Light Rain
8:00 AM 61 °F - 58 °F 87% 29.08 in 15 mi South 19.6 mph - - Rain Light Rain
8:00 AM 60.8 °F - 57.2 °F 88% 29.08 in 15.0 mi South 19.6 mph 28.8 mph N/A Rain Light Rain
9:00 AM 60.8 °F - 55.4 °F 82% 29.11 in 15.0 mi SSW 26.5 mph 38.0 mph N/A Rain Light Rain
9:06 AM 60.8 °F - 53.6 °F 77% 29.11 in 15.0 mi SSW 24.2 mph 38.0 mph N/A   Scattered Clouds
10:00 AM 60.8 °F - 51.8 °F 72% 29.11 in 15.0 mi SW 23.0 mph 47.2 mph N/A   Mostly Cloudy
11:00 AM 60.8 °F - 50.0 °F 68% 29.11 in 15.0 mi SSW 24.2 mph 44.9 mph N/A   Mostly Cloudy
11:31 AM 60.8 °F - 46.4 °F 59% 29.12 in 15.0 mi SW 31.1 mph 54.1 mph N/A   Mostly Cloudy
12:00 PM 59.0 °F - 46.4 °F 63% 29.13 in 15.0 mi SW 28.8 mph 46.0 mph N/A   Mostly Cloudy
1:00 PM 57.2 °F - 44.6 °F 63% 29.16 in 15.0 mi SSW 28.8 mph 43.7 mph N/A   Mostly Cloudy
1:16 PM 57.2 °F - 44.6 °F 63% 29.17 in 15.0 mi SW 34.5 mph 49.5 mph N/A Rain Light Rain
1:42 PM 55.4 °F - 44.6 °F 67% 29.18 in 15.0 mi SW 24.2 mph 39.1 mph N/A   Mostly Cloudy
2:00 PM 56 °F - 44 °F 53% 29.18 in 15 mi SW 26.5 mph - - Rain Light Rain
2:00 PM 55.4 °F - 42.8 °F 63% 29.18 in 15.0 mi SW 29.9 mph 40.3 mph N/A   Overcast
3:00 PM 55.4 °F - 42.8 °F 63% 29.17 in 15.0 mi SW 25.3 mph 41.4 mph N/A   Overcast
4:00 PM 55.4 °F - 44.6 °F 67% 29.23 in 15.0 mi WSW 24.2 mph 42.6 mph N/A   Mostly Cloudy
5:00 PM 55.4 °F - 41.0 °F 58% 29.32 in 15.0 mi WSW 31.1 mph 48.3 mph N/A   Mostly Cloudy
6:00 PM 53.6 °F - 41.0 °F 62% 29.42 in 15.0 mi West 17.3 mph 23.0 mph N/A   Overcast
7:00 PM 53.6 °F - 42.8 °F 67% 29.48 in 15.0 mi West 15.0 mph 27.6 mph N/A   Overcast
8:00 PM 51 °F - 42 °F 61% 29.54 in 15 mi West 17.3 mph - -   Overcast
8:00 PM 51.8 °F - 41.0 °F 67% 29.54 in 15.0 mi West 13.8 mph 25.3 mph N/A   Overcast
9:00 PM 48.2 °F - 39.2 °F 71% 29.57 in 15.0 mi WNW 13.8 mph - N/A   Mostly Cloudy
10:00 PM 46.4 °F 41.1 °F 39.2 °F 76% 29.60 in 15.0 mi WNW 11.5 mph - N/A   Mostly Cloudy
11:00 PM 46.4 °F 41.1 °F 37.4 °F 71% 29.61 in 15.0 mi WNW 11.5 mph - N/A   Mostly Cloudy